SALIDA Weather Reports


time (UTC)temp
C
wind
direction
speed
KPH
gust
KPH
rain 1hr
cm
rain 24hr
cm
rain mn
cm
humidity
%
barometer
mb
20260906221156 31 90 4.8 6.4 0.00 0.00 0.00 18 1000.3
20260906215656 31 210 4.8 14.5 0.00 0.00 0.00 18 1000.5
20260906214156 31 290 3.2 6.4 0.00 0.00 0.00 19 1000.9
20260906212656 31 184 4.8 6.4 0.00 0.00 0.00 18 1001.1
20260906211156 31 352 6.4 12.9 0.00 0.00 0.00 19 1001.3
20260906205656 31 122 4.8 9.7 0.00 0.00 0.00 18 1001.6
20260906204157 31 229 6.4 19.3 0.00 0.00 0.00 19 1001.8
20260906202656 30 90 6.4 14.5 0.00 0.00 0.00 18 1001.8
20260906201157 30 255 4.8 12.9 0.00 0.00 0.00 19 1002.4
20260906195657 30 281 4.8 12.9 0.00 0.00 0.00 20 1002.3
20260906194157 30 209 6.4 12.9 0.00 0.00 0.00 20 1002.4
20260906192657 30 194 6.4 12.9 0.00 0.00 0.00 17 1002.4
20260906191157 30 147 8.0 16.1 0.00 0.00 0.00 21 1002.7
20260906185657 29 255 8.0 19.3 0.00 0.00 0.00 20 1002.7
20260906184157 29 331 6.4 16.1 0.00 0.00 0.00 22 1003.0
20260906182657 28 304 6.4 12.9 0.00 0.00 0.00 23 1003.2
20260906181157 28 358 8.0 12.9 0.00 0.00 0.00 24 1003.7
20260906175657 27 244 6.4 11.3 0.00 0.00 0.00 28 1004.1
20260906174157 26 319 8.0 14.5 0.00 0.00 0.00 31 1004.6
20260906172657 26 281 9.7 16.1 0.00 0.00 0.00 31 1004.9
20260906171157 25 355 4.8 11.3 0.00 0.00 0.00 33 1005.1
20260906165657 23 339 4.8 11.3 0.00 0.00 0.00 38 1005.6
20260906164157 23 337 4.8 11.3 0.00 0.00 0.00 39 1005.9
20260906162657 23 1 4.8 6.4 0.00 0.00 0.00 39 1006.0
20260906161157 22 0 1.6 6.4 0.00 0.00 0.00 42 1006.2
20260906155657 21 295 1.6 4.8 0.00 0.00 0.00 44 1006.4
20260906154157 20 23 0.0 0.0 0.00 0.00 0.00 46 1006.5
20260906152657 18 328 0.0 0.0 0.00 0.00 0.00 48 1006.9
20260906151157 17 328 0.0 0.0 0.00 0.00 0.00 53 1007.0
20260906145657 16 358 0.0 0.0 0.00 0.00 0.00 56 1007.2
20260906144157 15 338 1.6 4.8 0.00 0.00 0.00 60 1007.4
20260906142657 13 326 1.6 6.4 0.00 0.00 0.00 63 1007.5
20260906141157 12 295 1.6 3.2 0.00 0.00 0.00 66 1007.6
20260906135657 11 295 1.6 3.2 0.00 0.00 0.00 68 1007.7
20260906134157 10 295 1.6 6.4 0.00 0.00 0.00 71 1007.6
20260906132657 9 335 0.0 1.6 0.00 0.00 0.00 75 1007.3
20260906131157 8 335 0.0 0.0 0.00 0.00 0.00 76 1007.2
20260906125657 8 335 0.0 0.0 0.00 0.00 0.00 76 1007.0
20260906124157 8 335 0.0 0.0 0.00 0.00 0.00 75 1006.9
20260906122657 8 335 0.0 0.0 0.00 0.00 0.00 74 1006.7
20260906121157 9 335 0.0 1.6 0.00 0.00 0.00 75 1006.9
20260906115657 9 335 0.0 0.0 0.00 0.00 0.00 74 1006.8
20260906114157 10 335 0.0 0.0 0.00 0.00 0.00 74 1006.7
20260906112658 10 335 0.0 0.0 0.00 0.00 0.00 72 1006.8
20260906111157 10 335 0.0 0.0 0.00 0.00 0.00 71 1006.6
20260906105657 11 335 0.0 0.0 0.00 0.00 0.00 70 1006.6
20260906104157 11 263 0.0 1.6 0.00 0.00 0.00 70 1006.5
20260906102657 11 271 0.0 4.8 0.00 0.00 0.00 71 1006.5
20260906101157 11 3 0.0 0.0 0.00 0.00 0.00 69 1006.3
20260906095657 11 268 0.0 0.0 0.00 0.00 0.00 70 1006.3
20260906094158 11 268 0.0 0.0 0.00 0.00 0.00 68 1006.3
20260906092658 11 268 0.0 0.0 0.00 0.00 0.00 67 1006.2
20260906091158 12 268 0.0 0.0 0.00 0.00 0.00 65 1006.3
20260906085658 12 268 0.0 0.0 0.00 0.00 0.00 65 1006.1
20260906084158 12 268 0.0 0.0 0.00 0.00 0.00 65 1006.1
20260906082658 12 268 0.0 0.0 0.00 0.00 0.00 65 1006.0
20260906081158 12 268 0.0 0.0 0.00 0.00 0.00 65 1005.9
20260906075658 13 268 0.0 0.0 0.00 0.00 0.00 63 1005.7
20260906074158 13 268 0.0 0.0 0.00 0.00 0.00 62 1005.7
20260906072658 14 268 0.0 0.0 0.00 0.00 0.00 61 1005.6
20260906071158 14 268 0.0 0.0 0.00 0.00 0.00 60 1005.6
20260906065658 15 355 0.0 0.0 0.00 0.00 0.00 58 1005.6
20260906064158 15 11 0.0 0.0 0.00 0.00 0.00 56 1005.7
20260906062658 16 289 0.0 0.0 0.00 0.00 0.00 54 1005.5
20260906061158 16 293 1.6 3.2 0.00 0.00 0.00 53 1005.5
20260906055658 16 292 1.6 4.8 0.00 0.00 0.00 52 1005.3
20260906054158 17 342 0.0 1.6 0.00 0.00 0.00 50 1005.1
20260906052658 17 342 0.0 3.2 0.00 0.00 0.00 48 1005.0
20260906051158 18 342 0.0 1.6 0.00 0.00 0.00 47 1004.9
20260906045658 19 342 0.0 0.0 0.00 0.00 0.00 45 1004.9
20260906044158 20 342 1.6 4.8 0.00 0.00 0.00 43 1005.0
20260906042658 20 285 1.6 4.8 0.00 0.00 0.00 42 1004.9
20260906041158 20 312 4.8 6.4 0.00 0.00 0.00 42 1004.9
20260906035658 20 316 3.2 9.7 0.00 0.00 0.00 41 1004.6
20260906034158 21 295 1.6 4.8 0.00 0.00 0.00 40 1004.6
20260906032658 23 295 0.0 4.8 0.00 0.00 0.00 39 1004.1
20260906031158 23 149 0.0 4.8 0.00 0.00 0.00 37 1004.2
20260906025658 24 149 1.6 8.0 0.00 0.00 0.00 36 1004.1
20260906024158 24 150 3.2 8.0 0.00 0.00 0.00 36 1004.0
20260906022658 24 145 0.0 6.4 0.00 0.00 0.00 34 1003.9
20260906021158 25 188 1.6 0.0 0.00 0.00 0.00 30 1003.6
20260906015658 25 82 0.0 1.6 0.00 0.00 0.00 29 1003.2
20260906014158 26 28 1.6 4.8 0.00 0.00 0.00 28 1003.0
20260906012658 26 297 4.8 8.0 0.00 0.00 0.00 27 1003.0
20260906011158 27 236 8.0 17.7 0.00 0.00 0.00 26 1002.9
20260906005658 27 164 6.4 12.9 0.00 0.00 0.00 24 1002.9
20260906004158 27 227 4.8 9.7 0.00 0.00 0.00 23 1002.6
20260906002658 28 224 8.0 20.9 0.00 0.00 0.00 22 1002.6
20260906001158 28 233 6.4 16.1 0.00 0.00 0.00 23 1002.6
20260905235658 28 223 3.2 9.7 0.00 0.00 0.00 21 1002.4
20260905234158 29 236 3.2 9.7 0.00 0.00 0.00 21 1002.3
20260905232658 29 301 3.2 8.0 0.00 0.00 0.00 22 1002.3
20260905231158 30 266 3.2 8.0 0.00 0.00 0.00 23 1002.3
20260905225659 30 322 3.2 6.4 0.00 0.00 0.00 21 1002.3
20260905224159 31 109 3.2 4.8 0.00 0.00 0.00 20 1002.3
20260905222659 31 266 3.2 11.3 0.00 0.00 0.00 21 1002.4